Temperature
19 19 19 19 16 16 17 19 21 21 22 24 24 24 22 22 21 20 22 22 22 22 22 22 22 22 21 21 20 20 19 18 18 17 17 17 17 16 16 16 17 17 17 17 17 16 16 17 17
19 19 19 18 15 16 19 20 20 22 23 25 24 23 22 22 22 22 22 22 22 22 22 22 22 22 21 21 21 20 20 19 18 17 17 17 17 16 16 16 16 17 17 17 16 16 16 17 17
19 19 19 16 15 18 20 20 21 23 24 25 24 24 23 22 22 22 22 22 22 22 21 21 21 21 21 21 21 21 20 19 18 18 17 17 17 16 16 16 16 16 16 16 16 16 16 16 17
19 19 18 16 18 19 20 21 22 21 24 24 24 22 22 21 21 21 21 22 22 21 21 20 21 21 21 20 20 20 20 19 19 18 17 16 16 16 16 16 15 16 16 16 16 16 16 16 16
19 18 15 16 18 19 19 21 22 19 21 22 23 21 21 21 21 21 20 21 21 21 20 19 20 20 20 20 20 19 19 19 18 18 17 16 16 16 16 15 15 15 16 16 16 16 16 16 16
19 17 16 16 17 19 19 21 21 20 21 22 22 21 21 20 21 20 20 20 20 20 19 19 19 19 19 19 19 19 18 18 17 17 17 16 15 15 15 15 14 14 15 15 16 16 16 16 16
17 14 16 17 18 19 19 21 20 20 20 21 22 20 20 20 20 21 20 20 19 19 19 18 18 18 17 17 17 17 17 17 17 16 15 15 15 15 15 15 15 15 15 15 15 15 16 16 16
19 14 16 17 18 18 19 21 21 21 20 21 20 19 18 19 20 20 20 19 18 18 18 18 17 17 17 17 16 16 16 16 16 16 14 14 15 15 15 14 15 15 15 15 15 15 15 15 15
19 14 16 18 19 19 19 19 21 21 20 17 17 16 16 18 19 19 18 18 17 17 17 17 17 16 17 17 16 14 14 14 15 15 14 14 14 14 14 14 14 14 14 14 14 14 14 14 15
17 15 17 19 19 19 19 19 19 19 16 15 16 16 17 19 18 17 17 16 16 16 16 16 16 16 16 16 15 14 14 14 14 14 14 14 14 14 14 13 13 13 13 13 13 13 13 13 14
18 17 18 19 20 20 20 17 18 17 12 12 11 13 15 16 15 15 14 14 14 14 14 14 14 15 15 15 14 14 14 14 14 14 14 14 14 14 14 14 14 13 13 13 13 13 13 13 14
17 18 19 20 20 21 19 16 14 14 12 11 11 13 14 14 13 12 13 13 13 14 14 14 14 14 14 14 14 13 14 13 14 14 14 14 14 14 14 14 13 13 13 13 13 13 13 12 13
18 19 20 20 20 19 18 15 13 12 11 11 12 12 11 11 11 11 11 12 13 13 13 13 13 14 14 13 13 13 13 13 13 13 13 13 13 13 14 14 13 14 14 13 13 13 13 12 12
19 19 19 20 19 19 16 14 14 11 10 11 11 10 10 10 10 10 11 11 11 12 12 13 13 13 13 13 13 13 13 13 13 13 13 13 13 13 13 13 13 14 13 13 13 13 13 13 13
19 18 17 18 19 18 17 13 11 10 11 10 9 9 9 9 9 9 9 9 9 10 11 12 12 13 13 13 13 13 13 13 13 12 13 13 13 13 13 13 13 13 13 12 12 12 13 13 13
16 16 16 18 18 18 16 11 10 9 11 9 9 9 9 8 8 8 8 8 8 9 10 10 11 11 12 12 12 12 12 12 12 12 12 12 12 12 13 13 13 13 12 12 12 12 12 12 12
15 15 16 16 17 16 14 11 10 9 9 8 9 8 8 8 7 7 7 7 7 8 8 8 9 9 9 10 11 12 12 12 12 12 12 12 12 12 12 12 12 12 12 12 12 12 12 12 12
14 14 15 15 15 13 11 9 8 8 9 8 8 8 7 7 7 7 7 7 7 7 7 7 6 7 7 8 9 10 11 11 11 11 11 11 11 11 11 11 11 12 12 11 11 11 12 11 12
15 15 14 15 15 13 10 8 8 8 8 8 7 6 6 6 6 6 6 6 6 6 6 6 6 6 6 5 6 6 7 8 8 8 8 9 10 10 10 10 11 11 11 11 11 11 11 11 11
14 14 13 14 14 12 8 8 8 8 7 6 5 5 5 5 5 5 5 5 5 5 5 5 5 5 5 5 5 4 5 5 6 6 7 8 8 8 9 9 10 10 11 10 10 10 11 11 11
13 13 13 12 12 10 9 8 7 7 6 5 5 5 4 4 4 4 4 4 4 4 4 4 4 4 4 4 4 4 4 4 4 5 6 6 7 7 8 8 9 10 10 10 10 10 10 11 11
12 13 12 12 12 10 12 8 7 6 4 4 4 4 3 3 3 3 3 3 3 3 3 3 3 3 3 3 2 2 3 3 3 3 4 5 6 6 7 8 8 9 9 9 9 9 10 10 10
12 12 10 11 10 11 11 9 6 6 3 3 3 3 3 2 3 2 2 2 2 2 1 1 1 1 1 1 2 1 1 2 2 2 3 3 4 5 6 6 7 7 8 9 9 9 9 10 10
11 10 11 10 9 12 11 10 5 3 3 3 3 2 2 2 2 2 2 1 1 1 0 0 0 -0 -0 -0 -0 0 0 1 1 1 2 2 3 4 5 5 6 7 7 8 9 9 9 9 9
10 10 11 12 10 12 9 7 3 3 3 3 3 2 2 1 1 1 0 0 -0 -1 -2 -2 -2 -1 -1 -1 -1 -1 -1 -0 0 0 0 1 1 3 4 5 5 6 6 6 8 9 9 9 8
10 9 9 10 10 8 8 5 2 4 4 3 2 2 1 1 0 -0 -1 -1 -1 -2 -3 -3 -3 -3 -2 -1 -1 -1 -1 -1 -1 -1 -1 -1 -1 1 2 3 4 5 5 6 6 8 8 8 8
10 9 9 8 8 6 6 4 3 4 3 2 2 1 0 -0 -1 -2 -3 -3 -3 -3 -3 -4 -4 -4 -3 -3 -2 -2 -2 -2 -2 -2 -2 -3 -3 -3 -1 0 2 3 4 6 6 7 7 7 7
9 10 5 8 6 6 6 4 2 2 1 1 1 0 -1 -1 -2 -3 -4 -4 -4 -5 -5 -5 -6 -6 -5 -5 -5 -5 -4 -4 -4 -4 -4 -5 -5 -4 -4 -2 -0 2 3 5 5 6 7 7 7
9 8 8 7 6 5 4 3 4 2 1 0 0 0 -1 -2 -3 -3 -4 -5 -5 -6 -7 -7 -7 -7 -7 -7 -7 -6 -5 -5 -5 -5 -5 -5 -5 -4 -3 -2 -1 1 2 3 4 5 5 6 6
9 7 6 5 5 4 3 3 3 2 2 1 1 -0 -2 -3 -4 -5 -6 -6 -7 -7 -7 -8 -8 -8 -8 -8 -8 -7 -7 -6 -6 -5 -5 -5 -5 -4 -3 -2 -0 1 2 2 3 4 4 6 6
Wind_Speed
10 10 3 4 5 4 4 4 2 2 2 2 2 8 7 4 3 2 3 4 8 8 12 14 16 16 15 14 13 12 11 9 8 8 7 6 5 4 4 7 7 8 8 8 7 6 6 7 5
6 4 5 4 4 4 3 5 4 4 2 3 6 7 6 3 1 4 3 8 9 9 13 14 17 16 15 15 13 13 12 11 10 8 7 5 4 4 4 4 7 9 9 9 8 6 6 6 6
4 3 4 4 3 2 1 3 3 3 5 5 4 5 4 3 1 2 2 9 9 8 13 15 17 17 16 15 14 14 13 11 10 9 8 7 5 5 5 5 5 7 8 8 9 8 7 7 7
3 4 4 4 3 3 1 1 3 6 8 8 4 5 4 1 1 1 1 7 8 6 9 12 15 14 12 12 12 13 12 11 10 8 8 8 7 6 6 8 5 5 6 7 8 8 7 7 7
4 4 5 4 4 5 5 3 7 9 8 8 6 4 4 4 4 6 5 3 6 5 4 7 9 9 9 10 10 11 11 11 10 9 9 9 8 7 8 8 8 6 4 5 5 6 6 7 7
4 4 4 3 5 6 5 7 6 7 6 5 4 3 3 6 6 7 8 7 7 7 5 4 5 5 5 6 7 8 9 9 8 8 8 6 9 10 8 7 6 5 5 5 5 5 6 7 8
4 4 2 1 3 5 8 7 6 5 8 8 4 4 4 6 5 3 7 7 7 7 6 5 2 1 3 4 5 6 7 7 7 8 8 6 7 9 10 7 5 6 7 7 6 5 6 6 7
4 4 3 3 2 3 7 5 3 7 6 7 7 7 6 11 11 7 6 8 10 10 8 7 6 4 3 4 5 6 6 6 7 7 6 6 6 7 6 7 7 8 9 9 9 7 6 6 7
4 5 3 4 2 2 5 6 7 4 8 11 10 9 8 14 20 18 12 10 10 11 10 8 8 7 4 4 5 6 7 7 7 6 6 6 5 6 6 8 10 11 10 10 10 10 9 9 9
4 3 2 1 1 1 2 6 6 9 13 10 10 14 16 23 25 24 20 15 13 11 10 10 8 8 10 7 2 3 3 6 7 7 8 8 8 8 9 11 14 13 12 13 13 13 13 12 10
4 4 3 2 1 1 4 8 9 9 10 7 7 12 19 25 24 23 21 19 18 16 17 14 10 10 10 7 6 5 5 6 7 8 8 9 8 9 9 8 10 10 11 11 11 11 11 10 10
3 4 3 1 3 2 6 7 11 16 9 7 10 13 21 23 21 20 19 18 17 18 19 18 14 13 12 9 6 6 4 4 3 6 8 6 3 3 3 3 6 6 7 6 6 6 8 9 11
2 2 2 2 2 7 14 12 15 14 10 11 17 23 22 21 18 16 16 18 19 20 20 19 18 17 14 10 7 6 4 4 4 5 7 5 3 4 4 3 4 4 5 4 3 3 6 7 7
2 4 4 2 7 7 14 9 10 10 9 16 20 20 19 19 17 17 20 19 18 18 18 18 19 18 16 12 12 9 10 10 7 7 8 7 5 4 5 5 4 4 5 5 4 6 5 6 7
3 5 6 4 6 6 10 10 9 7 12 17 15 15 16 16 16 14 12 13 15 15 16 18 17 17 16 15 13 12 14 15 10 9 10 8 7 5 4 5 5 5 7 7 5 6 4 5 5
5 5 5 6 5 3 6 6 8 5 16 15 11 11 13 12 12 10 9 9 10 12 14 16 16 17 15 12 12 13 15 14 12 16 16 13 9 7 4 5 6 6 6 4 6 7 5 5 5
8 4 4 6 10 6 7 7 6 6 16 13 10 10 11 13 15 13 11 10 9 9 10 12 14 14 13 10 11 12 14 14 15 16 16 19 15 10 5 5 6 6 5 6 6 7 6 5 5
3 3 4 2 6 8 10 11 10 7 14 11 11 11 13 17 17 15 13 11 10 10 10 9 10 11 12 11 10 9 10 11 14 15 17 22 20 16 7 6 7 6 6 6 5 7 6 5 5
2 2 4 2 4 7 12 13 8 6 11 12 13 14 15 14 14 15 15 14 14 15 13 13 13 12 10 7 7 9 10 10 10 9 18 20 22 21 12 8 7 7 6 7 7 5 6 6 4
4 2 4 6 7 7 14 12 6 7 10 12 13 13 12 14 16 16 16 17 18 19 20 18 16 14 11 5 4 4 4 5 7 8 13 18 21 21 16 14 10 8 6 7 6 5 4 4 5
4 2 3 6 5 6 13 7 5 7 12 14 13 12 14 16 16 16 16 14 15 17 17 16 17 17 14 8 5 5 5 5 6 12 14 16 21 21 19 16 13 9 7 7 7 6 6 5 4
4 5 7 6 3 3 4 3 3 6 12 13 11 11 12 15 15 14 15 16 16 15 14 15 14 15 14 9 6 5 5 6 7 9 12 15 17 19 20 16 15 10 7 7 6 6 5 5 4
7 12 7 2 5 2 1 4 2 4 9 9 9 10 13 15 14 13 14 15 16 16 13 15 15 15 14 11 11 8 8 8 9 10 12 14 15 16 19 18 16 12 8 8 7 6 5 4 4
9 7 3 3 3 0 0 4 0 3 4 5 7 10 13 14 13 11 14 15 16 14 14 16 17 15 13 12 12 12 13 15 14 14 13 12 13 14 17 19 18 16 11 9 8 8 8 6 5
9 8 6 7 5 3 2 5 3 4 1 3 6 9 11 13 12 12 16 17 17 13 14 15 16 15 14 14 14 14 13 14 14 14 13 14 14 14 16 19 18 18 13 10 7 7 7 7 5
5 5 4 2 5 7 4 4 5 4 1 4 6 8 13 15 11 14 16 17 18 17 17 17 17 16 18 18 17 15 14 12 12 13 14 14 13 15 19 19 20 21 14 11 9 5 7 7 7
5 4 1 2 3 4 1 5 3 1 4 7 9 13 13 13 11 13 15 16 16 16 16 18 20 20 19 18 17 17 16 15 16 17 16 14 15 16 18 19 19 19 7 7 7 6 9 8 6
3 2 3 4 5 6 3 1 3 9 10 10 10 12 11 12 12 13 15 17 16 18 19 18 19 19 19 19 17 15 16 17 16 16 17 18 18 19 20 19 19 18 10 6 5 2 4 10 8
5 5 4 2 1 3 5 2 3 3 5 8 10 11 12 13 15 15 16 17 17 17 17 17 18 18 19 19 18 17 17 18 17 15 18 19 18 19 21 22 19 17 12 7 6 7 5 8 8
4 4 3 2 5 3 4 3 4 2 5 7 8 9 9 10 12 12 15 16 16 18 19 19 17 17 18 18 17 17 17 18 17 16 18 19 18 20 21 18 12 6 3 2 3 4 5 6 8
Wind_Direction
338 345 45 55 51 37 344 326 310 51 44 3 52 93 110 102 103 141 211 169 145 143 169 175 176 176 176 177 177 175 174 171 168 176 178 182 195 201 226 210 205 210 210 207 207 202 196 200 182
343 4 41 63 73 55 350 315 19 19 26 33 70 85 82 56 82 146 170 168 152 152 170 178 181 180 180 181 182 183 180 180 180 183 181 180 194 210 241 247 223 209 210 211 213 210 200 210 201
355 54 58 60 66 103 182 283 353 355 12 41 43 71 78 15 26 170 225 157 150 158 171 181 181 182 183 184 187 189 189 191 191 193 190 196 206 227 235 241 223 204 205 204 208 209 204 208 208
28 37 44 63 359 325 285 301 56 22 4 21 32 50 51 356 245 181 151 148 151 160 171 178 180 182 185 190 194 196 197 199 202 198 208 208 201 224 236 217 187 184 197 196 199 205 202 208 216
51 62 46 43 346 327 324 341 63 55 13 354 31 43 61 5 357 40 46 104 134 115 134 166 176 182 188 196 201 203 205 210 207 206 211 211 199 213 231 205 181 180 202 206 202 200 206 217 224
49 61 61 23 325 326 340 353 41 50 12 357 46 72 45 4 14 25 45 55 103 109 111 133 168 181 193 206 214 215 216 219 219 220 207 209 224 210 226 216 186 181 207 225 227 225 222 228 233
85 76 95 332 328 12 345 341 45 33 17 2 8 63 25 353 339 41 86 86 90 80 71 53 42 181 194 217 236 236 231 225 229 235 221 203 239 223 213 216 209 205 215 224 233 242 243 241 241
105 90 44 21 40 31 327 345 22 41 23 4 32 35 8 340 343 0 53 63 56 53 49 35 18 350 296 256 239 230 235 233 237 243 230 219 236 253 229 214 210 211 217 223 222 225 243 251 252
84 67 44 9 32 344 332 11 357 29 52 45 39 40 358 12 29 30 21 31 41 38 34 37 34 17 341 268 249 227 230 231 236 238 231 223 216 234 237 234 224 227 222 221 220 218 223 233 243
85 106 210 259 208 192 11 35 344 43 50 34 26 27 26 38 40 39 29 23 23 20 19 22 14 18 23 13 329 261 272 257 240 236 231 221 212 227 242 238 235 239 226 221 222 228 228 230 237
135 175 222 289 222 172 54 42 20 90 52 20 40 35 37 44 39 37 33 29 21 15 11 4 0 17 25 21 24 2 322 280 247 256 260 250 227 231 243 235 231 220 224 229 235 238 235 227 232
184 237 213 276 345 37 86 96 62 72 79 60 63 58 51 48 43 37 31 26 22 20 14 9 8 9 7 10 12 355 334 333 303 277 289 279 269 259 259 239 236 227 231 236 238 234 228 228 233
194 274 267 274 59 73 78 85 90 71 72 68 62 56 52 50 45 40 36 31 24 20 12 7 12 11 4 3 354 349 343 338 326 309 310 293 274 272 268 267 270 261 252 253 259 250 240 228 227
295 279 293 344 73 83 94 85 79 68 71 64 58 56 52 49 40 36 32 27 22 17 10 5 13 7 4 4 359 352 347 337 328 325 318 305 276 260 258 255 259 261 257 253 246 244 239 235 235
308 343 9 32 117 138 99 50 62 81 74 64 56 54 53 47 40 36 30 30 24 18 11 10 10 7 6 3 358 356 354 349 337 326 320 310 297 282 269 267 267 264 269 269 261 254 242 253 256
18 31 24 2 24 54 96 85 66 66 81 67 56 51 51 42 37 29 25 21 18 18 14 7 7 7 5 3 360 357 355 353 349 340 326 308 287 272 258 254 257 261 263 257 256 251 247 242 246
23 20 1 347 16 16 77 117 87 66 80 69 52 45 43 35 28 17 15 10 2 4 10 11 8 5 3 357 359 1 359 353 346 344 339 327 307 279 244 243 252 260 256 252 246 240 218 230 241
322 325 301 298 13 52 86 88 65 41 71 63 48 40 35 32 18 6 2 0 356 350 355 358 1 358 359 355 352 357 1 355 349 347 346 339 332 311 280 263 266 264 258 260 250 238 214 216 225
246 270 296 301 30 45 91 91 69 43 59 52 43 36 33 23 7 4 359 354 354 352 349 345 349 343 342 343 343 347 354 348 343 342 339 342 339 332 319 285 262 257 244 250 245 228 223 220 195
23 15 344 318 7 69 96 91 75 57 59 56 52 40 25 14 6 360 356 356 355 353 354 348 339 329 323 319 306 304 307 316 318 329 334 340 336 329 320 307 279 250 235 239 238 228 204 202 179
351 165 250 268 317 115 125 106 106 72 63 54 43 31 23 9 358 356 357 356 357 3 1 355 347 345 338 327 319 310 316 323 335 342 341 338 333 330 325 317 298 261 229 220 211 213 205 189 191
304 254 273 262 269 213 181 151 134 84 59 43 27 21 11 3 356 353 358 1 6 1 352 349 347 343 339 336 331 336 359 351 338 335 328 326 326 325 322 319 310 277 238 224 208 199 193 169 182
290 296 292 213 179 252 352 113 202 71 41 14 5 11 9 2 356 358 5 3 355 349 352 347 343 339 336 334 344 0 359 344 329 328 323 322 322 321 319 319 320 303 269 228 206 194 175 171 175
314 327 18 73 95 278 124 124 210 39 42 357 359 5 356 354 351 4 6 357 350 350 355 349 347 343 343 355 5 2 347 339 335 332 325 323 319 317 317 317 316 305 294 255 201 184 171 172 171
8 11 20 8 3 278 53 78 118 116 91 17 12 359 346 351 356 6 359 354 345 345 353 346 346 345 359 356 352 348 343 339 336 332 328 322 317 315 315 314 311 298 274 272 235 167 152 152 157
355 47 61 333 287 294 358 117 158 165 125 23 23 354 356 357 0 1 355 351 343 343 347 344 345 352 352 351 349 346 345 340 334 330 326 320 316 309 308 307 305 294 252 228 234 179 142 133 127
359 39 133 223 284 288 223 115 137 146 15 13 3 354 355 351 354 350 351 350 345 339 347 353 351 351 353 351 346 345 343 339 335 331 327 321 315 309 304 302 298 291 268 223 208 195 145 124 107
63 58 13 357 320 303 312 93 309 2 356 347 340 344 346 349 348 349 355 348 351 356 355 352 354 353 349 345 342 340 338 337 331 327 322 318 314 311 307 302 292 281 253 198 173 141 127 119 113
4 29 43 285 233 277 298 320 58 23 330 317 327 345 349 346 348 351 351 347 347 351 352 349 352 352 349 343 341 340 339 334 326 323 324 322 314 311 307 301 297 277 243 214 173 152 150 113 103
71 70 62 2 303 284 266 262 110 191 271 302 328 349 342 342 339 348 347 345 350 352 349 348 350 354 346 340 340 340 337 334 332 334 335 333 326 320 309 306 329 316 231 178 167 147 131 113 109
Height
1525 1524 1524 1524 1529 1534 1534 1525 1515 1510 1507 1507 1507 1507 1511 1515 1519 1527 1521 1519 1520 1520 1520 1520 1520 1520 1520 1520 1519 1519 1519 1520 1520 1521 1522 1522 1523 1524 1525 1525 1525 1526 1526 1527 1528 1528 1528 1530 1530
1525 1525 1525 1525 1534 1543 1535 1523 1516 1511 1508 1508 1509 1511 1512 1515 1517 1518 1519 1519 1520 1520 1520 1521 1521 1521 1520 1520 1519 1519 1519 1519 1520 1520 1521 1521 1522 1523 1523 1524 1524 1525 1525 1526 1526 1527 1527 1529 1529
1525 1524 1526 1528 1537 1537 1532 1521 1515 1511 1510 1510 1511 1513 1516 1519 1520 1520 1521 1520 1521 1521 1521 1522 1522 1522 1521 1521 1520 1519 1519 1519 1519 1520 1520 1521 1522 1522 1523 1523 1524 1524 1524 1524 1525 1526 1526 1527 1528
1526 1526 1528 1533 1536 1529 1524 1519 1515 1514 1512 1512 1513 1516 1520 1521 1522 1523 1522 1522 1522 1522 1522 1523 1523 1523 1522 1521 1520 1519 1519 1519 1518 1518 1519 1519 1520 1521 1522 1522 1523 1523 1523 1523 1524 1525 1525 1525 1526
1526 1527 1534 1539 1536 1529 1525 1521 1516 1518 1518 1516 1516 1519 1522 1524 1524 1524 1524 1523 1523 1523 1522 1523 1523 1523 1522 1520 1519 1519 1518 1518 1517 1517 1518 1518 1518 1519 1520 1521 1522 1522 1522 1522 1522 1523 1523 1524 1525
1528 1529 1541 1545 1539 1530 1526 1523 1520 1522 1522 1520 1520 1521 1525 1526 1526 1526 1525 1525 1524 1524 1523 1523 1523 1522 1521 1520 1519 1519 1518 1517 1517 1516 1516 1517 1517 1518 1519 1520 1520 1520 1521 1521 1521 1521 1521 1522 1522
1530 1535 1541 1541 1539 1534 1530 1526 1524 1525 1524 1524 1523 1525 1528 1529 1528 1528 1527 1526 1526 1525 1524 1523 1523 1522 1521 1520 1519 1518 1517 1516 1516 1515 1515 1515 1516 1517 1518 1518 1518 1518 1519 1519 1519 1519 1520 1520 1520
1531 1536 1540 1540 1539 1538 1532 1528 1527 1527 1528 1527 1527 1530 1533 1532 1530 1529 1529 1528 1526 1525 1524 1523 1522 1521 1520 1519 1518 1517 1516 1515 1514 1514 1514 1514 1514 1515 1516 1515 1515 1516 1516 1516 1517 1517 1517 1518 1518
1532 1542 1546 1540 1538 1537 1532 1530 1529 1530 1532 1532 1534 1537 1537 1532 1529 1529 1530 1529 1528 1527 1527 1525 1523 1521 1520 1518 1517 1516 1515 1514 1513 1512 1513 1513 1513 1513 1513 1512 1513 1513 1513 1513 1514 1514 1514 1515 1515
1534 1544 1541 1535 1534 1533 1532 1532 1531 1532 1535 1539 1538 1538 1536 1531 1529 1529 1530 1531 1531 1530 1529 1527 1525 1522 1520 1518 1516 1515 1514 1513 1512 1511 1511 1511 1511 1511 1511 1511 1511 1511 1510 1510 1510 1510 1511 1511 1511
1533 1537 1534 1532 1532 1532 1532 1534 1532 1534 1544 1548 1545 1541 1537 1532 1531 1531 1532 1532 1531 1530 1529 1528 1527 1523 1520 1517 1516 1515 1513 1512 1511 1510 1509 1510 1509 1509 1509 1508 1508 1509 1508 1507 1507 1507 1506 1506 1505
1533 1531 1531 1532 1532 1531 1533 1536 1539 1539 1551 1551 1547 1542 1537 1535 1536 1536 1535 1534 1533 1531 1529 1527 1524 1521 1520 1518 1517 1515 1513 1511 1510 1509 1508 1507 1507 1507 1506 1505 1505 1505 1505 1505 1504 1503 1502 1502 1501
1532 1531 1530 1531 1531 1533 1534 1538 1543 1551 1554 1552 1547 1542 1540 1541 1541 1541 1540 1536 1534 1531 1529 1526 1524 1521 1519 1517 1516 1515 1513 1511 1510 1508 1507 1505 1504 1503 1502 1502 1501 1501 1501 1500 1499 1499 1498 1498 1497
1531 1530 1529 1529 1531 1533 1537 1545 1547 1558 1557 1551 1546 1545 1545 1544 1545 1543 1539 1537 1535 1533 1530 1527 1524 1522 1520 1517 1515 1513 1511 1510 1509 1507 1506 1504 1502 1500 1499 1498 1497 1496 1495 1495 1495 1494 1493 1493 1493
1530 1530 1530 1529 1531 1534 1536 1550 1557 1560 1555 1551 1551 1551 1550 1549 1547 1545 1544 1541 1538 1535 1532 1527 1524 1522 1519 1516 1514 1512 1510 1508 1506 1505 1504 1502 1500 1498 1496 1494 1492 1491 1490 1490 1489 1489 1488 1488 1488
1534 1538 1542 1536 1534 1535 1540 1562 1563 1560 1554 1554 1555 1555 1554 1552 1550 1549 1546 1543 1539 1535 1531 1528 1525 1521 1518 1515 1512 1509 1508 1506 1504 1501 1500 1499 1497 1495 1492 1490 1488 1487 1486 1485 1484 1483 1482 1482 1482
1547 1552 1548 1543 1537 1536 1542 1561 1564 1564 1557 1559 1560 1560 1559 1557 1553 1551 1548 1545 1540 1536 1531 1527 1524 1520 1517 1513 1509 1506 1503 1502 1501 1499 1496 1494 1492 1490 1488 1486 1484 1482 1480 1479 1478 1477 1477 1476 1477
1556 1554 1550 1547 1544 1544 1552 1566 1572 1570 1565 1566 1565 1564 1562 1560 1558 1554 1551 1546 1543 1538 1533 1528 1524 1519 1515 1511 1508 1502 1499 1497 1495 1493 1491 1488 1486 1485 1483 1481 1478 1476 1474 1473 1472 1472 1471 1470 1471
1549 1550 1552 1547 1546 1551 1561 1571 1575 1573 1571 1570 1569 1568 1565 1563 1560 1556 1551 1546 1542 1538 1533 1529 1523 1518 1513 1509 1505 1500 1494 1492 1490 1487 1484 1481 1478 1476 1474 1474 1472 1470 1468 1467 1466 1466 1465 1465 1465
1553 1553 1555 1550 1547 1557 1568 1574 1576 1575 1575 1575 1574 1572 1570 1565 1560 1555 1551 1547 1543 1539 1534 1529 1524 1519 1514 1508 1503 1499 1493 1490 1488 1484 1479 1474 1471 1468 1466 1464 1463 1463 1461 1460 1460 1460 1459 1459 1459
1556 1555 1555 1556 1551 1554 1563 1573 1576 1576 1576 1577 1576 1575 1572 1568 1562 1557 1552 1548 1544 1539 1534 1529 1524 1518 1512 1507 1501 1494 1489 1484 1480 1475 1470 1467 1464 1461 1459 1456 1455 1455 1454 1452 1452 1453 1454 1454 1454
1559 1550 1551 1552 1556 1561 1556 1576 1581 1581 1581 1580 1578 1576 1573 1568 1563 1558 1553 1549 1544 1539 1533 1527 1521 1515 1510 1505 1498 1492 1485 1480 1475 1471 1466 1463 1459 1455 1452 1449 1448 1448 1448 1446 1444 1445 1447 1449 1449
1559 1550 1550 1550 1555 1556 1555 1569 1585 1583 1588 1587 1583 1579 1574 1570 1565 1560 1555 1550 1544 1537 1530 1523 1516 1510 1505 1501 1495 1489 1483 1478 1472 1467 1462 1457 1453 1449 1446 1444 1442 1440 1441 1440 1438 1438 1440 1442 1444
1553 1548 1548 1551 1556 1556 1555 1562 1586 1588 1589 1587 1584 1581 1576 1571 1565 1559 1554 1548 1542 1535 1528 1520 1513 1508 1504 1498 1491 1486 1480 1474 1467 1461 1456 1451 1447 1443 1440 1438 1436 1434 1433 1434 1432 1432 1433 1436 1439
1559 1560 1563 1559 1564 1557 1559 1570 1592 1591 1588 1586 1583 1579 1575 1569 1562 1556 1549 1544 1538 1531 1525 1518 1511 1505 1499 1493 1487 1482 1477 1472 1466 1458 1452 1445 1440 1436 1433 1430 1429 1428 1427 1427 1428 1426 1427 1429 1432
1570 1572 1581 1582 1576 1571 1561 1581 1596 1590 1587 1585 1583 1579 1573 1568 1562 1556 1550 1544 1536 1529 1522 1514 1507 1501 1495 1489 1483 1478 1473 1467 1461 1454 1447 1440 1435 1430 1426 1423 1422 1420 1419 1420 1421 1421 1421 1424 1426
1574 1577 1577 1579 1576 1582 1576 1588 1594 1590 1588 1585 1581 1577 1572 1567 1562 1556 1549 1541 1535 1528 1521 1514 1506 1498 1492 1486 1480 1474 1469 1463 1457 1451 1444 1437 1430 1424 1419 1416 1414 1413 1413 1413 1414 1417 1415 1417 1420
1574 1575 1589 1585 1590 1586 1577 1588 1593 1590 1588 1584 1579 1574 1569 1564 1559 1553 1546 1539 1533 1527 1519 1511 1504 1498 1492 1485 1479 1473 1467 1461 1455 1448 1442 1434 1426 1419 1413 1409 1407 1405 1406 1407 1408 1411 1410 1410 1413
1579 1580 1582 1586 1589 1593 1593 1594 1589 1590 1587 1582 1577 1572 1568 1562 1556 1550 1544 1538 1531 1524 1517 1510 1504 1497 1490 1484 1479 1472 1465 1459 1453 1447 1440 1431 1423 1415 1408 1403 1399 1396 1397 1400 1403 1405 1407 1407 1407
1581 1587 1592 1601 1596 1596 1598 1600 1589 1587 1584 1582 1578 1573 1569 1564 1556 1549 1542 1535 1529 1522 1515 1509 1503 1497 1490 1484 1478 1471 1465 1458 1452 1446 1438 1429 1420 1412 1405 1400 1394 1390 1392 1396 1398 1400 1402 1404 1403